Time,TemperatureF,DewpointF,PressureIn,WindDirection,WindDirectionDegrees,WindSpeedMPH,WindSpeedGustMPH,Humidity,HourlyPrecipIn,Conditions,Clouds,dailyrainin,SoftwareType,DateUTC
2013-03-30 00:01:00,57.1,40.2,30.01,SSE,153,9.0,11.0,53,0.00,,,0.00,VWS V14.00,2013-03-30 05:01:00,
2013-03-30 00:06:00,57.0,40.5,30.02,South,184,4.0,6.0,54,0.00,,,0.00,VWS V14.00,2013-03-30 05:06:00,
2013-03-30 00:11:00,56.9,40.9,30.03,SSE,165,1.0,7.0,55,0.00,,,0.00,VWS V14.00,2013-03-30 05:11:00,
2013-03-30 00:16:00,56.9,42.3,30.03,South,169,6.0,9.0,58,0.00,,,0.01,VWS V14.00,2013-03-30 05:16:00,
2013-03-30 00:21:00,56.6,43.3,30.03,SW,217,1.0,9.0,61,0.23,,,0.03,VWS V14.00,2013-03-30 05:21:00,
2013-03-30 00:26:00,56.3,44.3,30.04,SSW,198,6.0,9.0,64,0.15,,,0.04,VWS V14.00,2013-03-30 05:26:00,
2013-03-30 00:31:00,55.8,44.6,30.04,SSW,193,0.0,10.0,66,0.18,,,0.05,VWS V14.00,2013-03-30 05:31:00,
2013-03-30 00:36:00,55.2,44.8,30.03,South,171,0.0,4.0,68,0.24,,,0.08,VWS V14.00,2013-03-30 05:36:00,
2013-03-30 00:41:00,54.6,45.8,30.04,SSW,207,0.0,10.0,72,0.43,,,0.11,VWS V14.00,2013-03-30 05:41:00,
2013-03-30 00:46:00,54.0,45.9,30.04,South,182,2.0,10.0,74,0.24,,,0.14,VWS V14.00,2013-03-30 05:46:00,
2013-03-30 00:51:00,53.5,46.5,30.04,SW,229,3.0,10.0,77,0.56,,,0.17,VWS V14.00,2013-03-30 05:51:00,
2013-03-30 00:56:00,53.2,46.9,30.05,SSW,212,4.0,13.0,79,0.37,,,0.21,VWS V14.00,2013-03-30 05:56:00,
2013-03-30 01:01:00,52.9,47.2,30.05,SW,219,3.0,13.0,81,0.35,,,0.23,VWS V14.00,2013-03-30 06:01:00,
2013-03-30 01:06:00,52.7,47.4,30.05,West,271,0.0,2.0,82,0.19,,,0.25,VWS V14.00,2013-03-30 06:06:00,
2013-03-30 01:11:00,52.5,47.5,30.06,SW,221,0.0,5.0,83,0.19,,,0.27,VWS V14.00,2013-03-30 06:11:00,
2013-03-30 01:16:00,52.3,47.6,30.06,SW,234,2.0,6.0,84,0.41,,,0.29,VWS V14.00,2013-03-30 06:16:00,
2013-03-30 01:21:00,52.1,47.7,30.06,SW,227,3.0,11.0,85,0.31,,,0.32,VWS V14.00,2013-03-30 06:21:00,
2013-03-30 01:26:00,51.9,47.8,30.06,SSW,202,11.0,11.0,86,0.46,,,0.35,VWS V14.00,2013-03-30 06:26:00,
2013-03-30 01:31:00,51.7,47.7,30.05,SSW,202,3.0,11.0,86,0.36,,,0.40,VWS V14.00,2013-03-30 06:31:00,
2013-03-30 01:36:00,51.7,48.0,30.04,SE,132,9.0,10.0,87,0.51,,,0.45,VWS V14.00,2013-03-30 06:36:00,
2013-03-30 01:41:00,51.4,48.0,30.00,ESE,109,10.0,15.0,88,0.39,,,0.48,VWS V14.00,2013-03-30 06:41:00,
2013-03-30 01:46:00,51.2,48.1,29.98,SE,144,7.0,19.0,89,0.20,,,0.49,VWS V14.00,2013-03-30 06:46:00,
2013-03-30 01:51:00,51.0,47.9,29.97,SE,144,11.0,19.0,89,0.08,,,0.49,VWS V14.00,2013-03-30 06:51:00,
2013-03-30 01:56:00,51.1,48.3,29.97,SE,145,7.0,19.0,90,0.05,,,0.49,VWS V14.00,2013-03-30 06:56:00,
2013-03-30 02:01:00,51.2,48.4,29.98,SE,136,9.0,19.0,90,0.00,,,0.49,VWS V14.00,2013-03-30 07:01:00,
2013-03-30 02:06:00,51.4,48.6,29.97,ESE,109,4.0,15.0,90,0.00,,,0.49,VWS V14.00,2013-03-30 07:06:00,
2013-03-30 02:11:00,51.5,48.7,29.95,SSW,202,10.0,17.0,90,0.00,,,0.49,VWS V14.00,2013-03-30 07:11:00,
2013-03-30 02:16:00,51.7,48.6,29.95,SE,133,3.0,17.0,89,0.00,,,0.49,VWS V14.00,2013-03-30 07:16:00,
2013-03-30 02:21:00,51.7,48.6,29.95,SE,142,7.0,17.0,89,0.00,,,0.49,VWS V14.00,2013-03-30 07:21:00,
2013-03-30 02:26:00,51.9,48.5,29.94,South,176,14.0,17.0,88,0.00,,,0.49,VWS V14.00,2013-03-30 07:26:00,
2013-03-30 02:31:00,52.1,48.4,29.94,SSE,149,5.0,17.0,87,0.00,,,0.49,VWS V14.00,2013-03-30 07:31:00,
2013-03-30 02:36:00,52.3,48.2,29.95,SSW,205,11.0,11.0,86,0.00,,,0.49,VWS V14.00,2013-03-30 07:36:00,
2013-03-30 02:41:00,52.4,48.0,29.95,SSE,167,4.0,15.0,85,0.00,,,0.49,VWS V14.00,2013-03-30 07:41:00,
2013-03-30 02:46:00,52.5,47.8,29.95,SSE,147,7.0,16.0,84,0.00,,,0.49,VWS V14.00,2013-03-30 07:46:00,
2013-03-30 02:51:00,52.6,47.6,29.95,SSE,159,4.0,16.0,83,0.00,,,0.49,VWS V14.00,2013-03-30 07:51:00,
2013-03-30 02:56:00,52.7,47.7,29.95,SSE,155,6.0,16.0,83,0.00,,,0.49,VWS V14.00,2013-03-30 07:56:00,
2013-03-30 03:01:00,52.7,48.0,29.94,SE,145,3.0,16.0,84,0.00,,,0.49,VWS V14.00,2013-03-30 08:01:00,
2013-03-30 03:06:00,52.8,48.1,29.94,SSE,154,7.0,10.0,84,0.00,,,0.49,VWS V14.00,2013-03-30 08:06:00,
2013-03-30 03:11:00,52.8,48.1,29.94,SE,128,6.0,10.0,84,0.00,,,0.49,VWS V14.00,2013-03-30 08:11:00,
2013-03-30 03:17:00,52.7,48.0,29.93,SSE,149,8.0,13.0,84,0.00,,,0.49,VWS V14.00,2013-03-30 08:17:00,
2013-03-30 03:22:00,52.7,48.0,29.93,SSE,148,7.0,16.0,84,0.00,,,0.49,VWS V14.00,2013-03-30 08:22:00,
2013-03-30 03:27:00,52.7,48.0,29.93,SSE,149,13.0,19.0,84,0.00,,,0.49,VWS V14.00,2013-03-30 08:27:00,
2013-03-30 03:32:00,52.7,48.0,29.92,ESE,119,3.0,19.0,84,0.00,,,0.49,VWS V14.00,2013-03-30 08:32:00,
2013-03-30 03:37:00,52.6,47.9,29.92,ESE,122,4.0,9.0,84,0.00,,,0.49,VWS V14.00,2013-03-30 08:37:00,
2013-03-30 03:42:00,52.4,47.7,29.91,SE,144,7.0,12.0,84,0.00,,,0.49,VWS V14.00,2013-03-30 08:42:00,
2013-03-30 03:47:00,52.3,47.6,29.91,SE,140,9.0,13.0,84,0.00,,,0.49,VWS V14.00,2013-03-30 08:47:00,
2013-03-30 03:52:00,52.2,47.5,29.91,SSE,153,8.0,13.0,84,0.00,,,0.49,VWS V14.00,2013-03-30 08:52:00,
2013-03-30 03:57:00,52.0,47.0,29.91,SSE,150,3.0,13.0,83,0.00,,,0.49,VWS V14.00,2013-03-30 08:57:00,
2013-03-30 04:02:00,51.8,47.1,29.90,SE,129,6.0,13.0,84,0.00,,,0.49,VWS V14.00,2013-03-30 09:02:00,
2013-03-30 04:07:00,51.7,47.0,29.91,SSE,153,7.0,9.0,84,0.00,,,0.49,VWS V14.00,2013-03-30 09:07:00,
2013-03-30 04:12:00,51.5,46.8,29.91,SSE,157,6.0,11.0,84,0.00,,,0.49,VWS V14.00,2013-03-30 09:12:00,
2013-03-30 04:17:00,51.5,47.2,29.91,SSE,157,6.0,11.0,85,0.00,,,0.49,VWS V14.00,2013-03-30 09:17:00,
2013-03-30 04:22:00,51.4,47.0,29.90,SSE,161,5.0,11.0,85,0.00,,,0.49,VWS V14.00,2013-03-30 09:22:00,
2013-03-30 04:27:00,51.3,47.3,29.90,SSE,153,10.0,11.0,86,0.00,,,0.49,VWS V14.00,2013-03-30 09:27:00,
2013-03-30 04:32:00,51.3,47.3,29.90,South,180,3.0,11.0,86,0.00,,,0.49,VWS V14.00,2013-03-30 09:32:00,
2013-03-30 04:34:00,51.2,47.2,29.90,SSE,167,3.0,11.0,86,0.00,,,0.49,VWS V14.00,2013-03-30 09:34:00,
2013-03-30 04:39:00,51.1,47.1,29.90,SE,134,9.0,10.0,86,0.00,,,0.49,VWS V14.00,2013-03-30 09:39:00,
2013-03-30 04:44:00,51.0,47.3,29.90,SSE,165,5.0,13.0,87,0.00,,,0.49,VWS V14.00,2013-03-30 09:44:00,
2013-03-30 04:49:00,51.0,47.3,29.89,SSE,163,5.0,13.0,87,0.00,,,0.49,VWS V14.00,2013-03-30 09:49:00,
2013-03-30 04:54:00,51.0,47.3,29.89,SSE,159,4.0,13.0,87,0.00,,,0.49,VWS V14.00,2013-03-30 09:54:00,
2013-03-30 04:59:00,51.0,47.3,29.89,SE,146,0.0,13.0,87,0.00,,,0.49,VWS V14.00,2013-03-30 09:59:00,
2013-03-30 05:04:00,51.0,47.3,29.90,East,95,0.0,13.0,87,0.00,,,0.49,VWS V14.00,2013-03-30 10:04:00,
2013-03-30 05:09:00,51.0,47.3,29.91,NNE,30,2.0,6.0,87,0.00,,,0.49,VWS V14.00,2013-03-30 10:09:00,
2013-03-30 05:14:00,50.9,47.2,29.91,North,355,4.0,10.0,87,0.00,,,0.49,VWS V14.00,2013-03-30 10:14:00,
2013-03-30 05:19:00,50.6,46.9,29.91,NNE,19,0.0,10.0,87,0.00,,,0.49,VWS V14.00,2013-03-30 10:19:00,
2013-03-30 05:24:00,50.5,46.8,29.91,South,187,0.0,10.0,87,0.00,,,0.49,VWS V14.00,2013-03-30 10:24:00,
2013-03-30 05:29:00,50.4,47.0,29.91,SSE,150,0.0,10.0,88,0.00,,,0.49,VWS V14.00,2013-03-30 10:29:00,
2013-03-30 05:34:00,50.5,47.1,29.92,North,360,9.0,10.0,88,0.00,,,0.49,VWS V14.00,2013-03-30 10:34:00,
2013-03-30 05:39:00,50.5,47.1,29.93,NNE,24,6.0,11.0,88,0.00,,,0.49,VWS V14.00,2013-03-30 10:39:00,
2013-03-30 05:44:00,50.5,47.1,29.93,North,5,2.0,13.0,88,0.00,,,0.49,VWS V14.00,2013-03-30 10:44:00,
2013-03-30 05:49:00,50.6,47.2,29.93,North,355,3.0,13.0,88,0.00,,,0.50,VWS V14.00,2013-03-30 10:49:00,
2013-03-30 05:54:00,50.7,47.3,29.93,NNE,25,2.0,13.0,88,0.00,,,0.50,VWS V14.00,2013-03-30 10:54:00,
2013-03-30 05:59:00,50.7,47.3,29.93,ENE,63,0.0,13.0,88,0.00,,,0.50,VWS V14.00,2013-03-30 10:59:00,
2013-03-30 06:04:00,50.7,47.3,29.94,NNW,336,3.0,13.0,88,0.00,,,0.50,VWS V14.00,2013-03-30 11:04:00,
2013-03-30 06:09:00,50.8,47.4,29.93,North,355,0.0,4.0,88,0.00,,,0.50,VWS V14.00,2013-03-30 11:09:00,
2013-03-30 06:14:00,50.9,47.5,29.93,NNE,33,3.0,6.0,88,0.00,,,0.50,VWS V14.00,2013-03-30 11:14:00,
2013-03-30 06:19:00,51.0,47.6,29.93,East,80,2.0,6.0,88,0.00,,,0.50,VWS V14.00,2013-03-30 11:19:00,
2013-03-30 06:24:00,51.1,47.7,29.93,ENE,74,0.0,6.0,88,0.00,,,0.51,VWS V14.00,2013-03-30 11:24:00,
2013-03-30 06:29:00,51.1,47.7,29.93,ENE,74,0.0,6.0,88,0.00,,,0.51,VWS V14.00,2013-03-30 11:29:00,
2013-03-30 06:34:00,51.1,47.7,29.93,ENE,62,0.0,6.0,88,0.00,,,0.51,VWS V14.00,2013-03-30 11:34:00,
2013-03-30 06:39:00,51.0,47.6,29.93,East,79,0.0,1.0,88,0.00,,,0.51,VWS V14.00,2013-03-30 11:39:00,
2013-03-30 06:44:00,51.0,47.6,29.93,East,79,0.0,1.0,88,0.00,,,0.51,VWS V14.00,2013-03-30 11:44:00,
2013-03-30 06:49:00,50.9,47.5,29.92,East,98,3.0,5.0,88,0.00,,,0.51,VWS V14.00,2013-03-30 11:49:00,
2013-03-30 06:54:00,50.8,47.4,29.92,SE,134,3.0,5.0,88,0.00,,,0.51,VWS V14.00,2013-03-30 11:54:00,
2013-03-30 06:59:00,50.7,47.6,29.92,SSE,163,3.0,5.0,89,0.00,,,0.51,VWS V14.00,2013-03-30 11:59:00,
2013-03-30 07:04:00,50.6,47.5,29.92,SSE,147,1.0,5.0,89,0.00,,,0.51,VWS V14.00,2013-03-30 12:04:00,
2013-03-30 07:09:00,50.6,47.5,29.92,SE,146,0.0,0.0,89,0.00,,,0.51,VWS V14.00,2013-03-30 12:09:00,
2013-03-30 07:14:00,50.5,47.4,29.92,SE,146,0.0,0.0,89,0.00,,,0.51,VWS V14.00,2013-03-30 12:14:00,
2013-03-30 07:19:00,50.5,47.4,29.92,SSE,147,0.0,0.0,89,0.00,,,0.51,VWS V14.00,2013-03-30 12:19:00,
2013-03-30 07:24:00,50.5,47.4,29.92,SSE,147,0.0,3.0,89,0.00,,,0.51,VWS V14.00,2013-03-30 12:24:00,
2013-03-30 07:29:00,50.5,47.4,29.92,SSE,147,0.0,3.0,89,0.00,,,0.51,VWS V14.00,2013-03-30 12:29:00,
2013-03-30 07:34:00,50.5,47.4,29.92,SE,146,0.0,3.0,89,0.00,,,0.51,VWS V14.00,2013-03-30 12:34:00,
2013-03-30 07:39:00,50.5,47.4,29.93,SE,146,0.0,0.0,89,0.00,,,0.51,VWS V14.00,2013-03-30 12:39:00,
2013-03-30 07:44:00,50.5,47.4,29.93,SE,146,0.0,0.0,89,0.00,,,0.51,VWS V14.00,2013-03-30 12:44:00,
2013-03-30 07:49:00,50.5,47.7,29.94,SE,146,0.0,0.0,90,0.00,,,0.52,VWS V14.00,2013-03-30 12:49:00,
2013-03-30 07:54:00,50.7,47.9,29.94,NNE,12,3.0,3.0,90,0.00,,,0.52,VWS V14.00,2013-03-30 12:54:00,
2013-03-30 07:59:00,50.8,48.0,29.93,East,101,0.0,5.0,90,0.00,,,0.52,VWS V14.00,2013-03-30 12:59:00,
2013-03-30 08:04:00,50.6,47.8,29.93,ESE,122,3.0,6.0,90,0.00,,,0.52,VWS V14.00,2013-03-30 13:04:00,
2013-03-30 08:09:00,50.4,47.6,29.93,ESE,121,0.0,3.0,90,0.00,,,0.52,VWS V14.00,2013-03-30 13:09:00,
2013-03-30 08:14:00,50.4,47.6,29.93,ESE,121,0.0,3.0,90,0.00,,,0.52,VWS V14.00,2013-03-30 13:14:00,
2013-03-30 08:19:00,50.4,47.6,29.93,SE,125,0.0,3.0,90,0.00,,,0.52,VWS V14.00,2013-03-30 13:19:00,
2013-03-30 08:24:00,50.4,47.6,29.93,SE,130,0.0,3.0,90,0.00,,,0.52,VWS V14.00,2013-03-30 13:24:00,
2013-03-30 08:29:00,50.5,47.7,29.93,SE,131,0.0,3.0,90,0.00,,,0.52,VWS V14.00,2013-03-30 13:29:00,
2013-03-30 08:34:00,50.5,47.7,29.94,SE,130,0.0,3.0,90,0.00,,,0.52,VWS V14.00,2013-03-30 13:34:00,
2013-03-30 08:39:00,50.6,47.8,29.94,NE,52,3.0,4.0,90,0.00,,,0.52,VWS V14.00,2013-03-30 13:39:00,
2013-03-30 08:44:00,50.6,47.8,29.94,ENE,60,0.0,4.0,90,0.00,,,0.52,VWS V14.00,2013-03-30 13:44:00,
2013-03-30 08:49:00,50.7,47.9,29.93,ENE,60,0.0,4.0,90,0.00,,,0.52,VWS V14.00,2013-03-30 13:49:00,
2013-03-30 08:54:00,51.0,48.5,29.93,East,87,0.0,4.0,91,0.00,,,0.52,VWS V14.00,2013-03-30 13:54:00,
2013-03-30 08:59:00,51.4,48.9,29.93,East,88,0.0,4.0,91,0.00,,,0.52,VWS V14.00,2013-03-30 13:59:00,
2013-03-30 09:04:00,51.9,49.4,29.93,East,88,0.0,4.0,91,0.00,,,0.52,VWS V14.00,2013-03-30 14:04:00,
2013-03-30 09:09:00,52.4,49.6,29.93,East,88,0.0,0.0,90,0.00,,,0.52,VWS V14.00,2013-03-30 14:09:00,
2013-03-30 09:14:00,52.8,50.0,29.93,East,88,0.0,0.0,90,0.00,,,0.52,VWS V14.00,2013-03-30 14:14:00,
2013-03-30 09:19:00,53.3,50.2,29.93,East,88,0.0,0.0,89,0.00,,,0.52,VWS V14.00,2013-03-30 14:19:00,
2013-03-30 09:24:00,53.7,50.5,29.93,East,88,0.0,0.0,89,0.00,,,0.52,VWS V14.00,2013-03-30 14:24:00,
2013-03-30 09:29:00,53.9,50.4,29.93,East,88,0.0,1.0,88,0.00,,,0.52,VWS V14.00,2013-03-30 14:29:00,
2013-03-30 09:34:00,54.0,50.2,29.93,WSW,241,0.0,1.0,87,0.00,,,0.52,VWS V14.00,2013-03-30 14:34:00,
2013-03-30 09:39:00,54.1,50.3,29.93,WSW,240,0.0,0.0,87,0.00,,,0.52,VWS V14.00,2013-03-30 14:39:00,
2013-03-30 09:44:00,54.2,50.4,29.93,WSW,238,0.0,0.0,87,0.00,,,0.52,VWS V14.00,2013-03-30 14:44:00,
2013-03-30 09:49:00,54.6,50.8,29.93,WSW,238,0.0,0.0,87,0.00,,,0.52,VWS V14.00,2013-03-30 14:49:00,
2013-03-30 09:54:00,54.8,50.7,29.93,WSW,239,0.0,1.0,86,0.00,,,0.52,VWS V14.00,2013-03-30 14:54:00,
2013-03-30 09:59:00,54.9,50.5,29.93,SW,233,0.0,1.0,85,0.00,,,0.52,VWS V14.00,2013-03-30 14:59:00,
2013-03-30 10:04:00,55.2,50.8,29.93,SW,234,0.0,1.0,85,0.00,,,0.52,VWS V14.00,2013-03-30 15:04:00,
2013-03-30 10:08:00,55.5,51.1,29.93,WSW,238,0.0,1.0,85,0.00,,,0.52,VWS V14.00,2013-03-30 15:08:00,
2013-03-30 10:13:00,55.7,51.0,29.93,WSW,241,5.0,5.0,84,0.00,,,0.52,VWS V14.00,2013-03-30 15:13:00,
2013-03-30 10:18:00,55.8,50.7,29.93,SW,219,0.0,6.0,83,0.00,,,0.52,VWS V14.00,2013-03-30 15:18:00,
2013-03-30 10:23:00,55.9,50.8,29.93,West,276,0.0,6.0,83,0.00,,,0.52,VWS V14.00,2013-03-30 15:23:00,
2013-03-30 10:28:00,56.0,50.9,29.93,WSW,254,3.0,6.0,83,0.00,,,0.52,VWS V14.00,2013-03-30 15:28:00,
2013-03-30 10:33:00,56.3,51.5,29.93,WSW,255,1.0,6.0,84,0.00,,,0.52,VWS V14.00,2013-03-30 15:33:00,
2013-03-30 10:38:00,56.4,51.3,29.93,WSW,257,5.0,9.0,83,0.00,,,0.52,VWS V14.00,2013-03-30 15:38:00,
2013-03-30 10:43:00,56.5,51.4,29.93,WSW,248,3.0,9.0,83,0.00,,,0.52,VWS V14.00,2013-03-30 15:43:00,
2013-03-30 10:48:00,56.9,52.1,29.93,WSW,252,7.0,9.0,84,0.00,,,0.52,VWS V14.00,2013-03-30 15:48:00,
2013-03-30 10:53:00,57.1,52.0,29.93,West,263,0.0,9.0,83,0.00,,,0.52,VWS V14.00,2013-03-30 15:53:00,
2013-03-30 10:58:00,57.4,52.0,29.93,WSW,256,5.0,11.0,82,0.00,,,0.52,VWS V14.00,2013-03-30 15:58:00,
2013-03-30 11:03:00,57.4,52.0,29.93,NW,308,0.0,11.0,82,0.00,,,0.52,VWS V14.00,2013-03-30 16:03:00,
2013-03-30 11:08:00,57.6,52.2,29.93,West,277,0.0,10.0,82,0.00,,,0.52,VWS V14.00,2013-03-30 16:08:00,
2013-03-30 11:13:00,57.7,52.2,29.92,WNW,288,9.0,11.0,82,0.00,,,0.52,VWS V14.00,2013-03-30 16:13:00,
2013-03-30 11:18:00,57.5,51.7,29.92,WNW,290,5.0,11.0,81,0.00,,,0.52,VWS V14.00,2013-03-30 16:18:00,
2013-03-30 11:23:00,57.5,52.1,29.92,West,275,5.0,11.0,82,0.00,,,0.52,VWS V14.00,2013-03-30 16:23:00,
2013-03-30 11:28:00,57.9,52.1,29.92,WNW,286,8.0,14.0,81,0.00,,,0.52,VWS V14.00,2013-03-30 16:28:00,
2013-03-30 11:33:00,58.1,52.0,29.92,WNW,293,0.0,14.0,80,0.00,,,0.52,VWS V14.00,2013-03-30 16:33:00,
2013-03-30 11:38:00,58.4,51.9,29.92,West,275,5.0,10.0,79,0.00,,,0.52,VWS V14.00,2013-03-30 16:38:00,
2013-03-30 11:43:00,59.0,52.8,29.92,West,259,8.0,11.0,80,0.00,,,0.52,VWS V14.00,2013-03-30 16:43:00,
2013-03-30 11:48:00,59.0,52.5,29.92,West,279,6.0,12.0,79,0.00,,,0.52,VWS V14.00,2013-03-30 16:48:00,
2013-03-30 11:53:00,59.0,52.2,29.92,WNW,287,11.0,13.0,78,0.00,,,0.52,VWS V14.00,2013-03-30 16:53:00,
2013-03-30 11:58:00,59.6,52.7,29.92,WNW,298,0.0,13.0,78,0.00,,,0.52,VWS V14.00,2013-03-30 16:58:00,
2013-03-30 12:03:00,59.9,52.0,29.92,WNW,286,9.0,13.0,75,0.00,,,0.52,VWS V14.00,2013-03-30 17:03:00,
2013-03-30 12:08:00,60.3,51.6,29.92,NW,315,0.0,7.0,73,0.00,,,0.52,VWS V14.00,2013-03-30 17:08:00,
2013-03-30 12:13:00,60.9,52.9,29.92,WNW,303,0.0,7.0,75,0.00,,,0.52,VWS V14.00,2013-03-30 17:13:00,
2013-03-30 12:18:00,61.7,51.8,29.92,West,269,4.0,11.0,70,0.00,,,0.52,VWS V14.00,2013-03-30 17:18:00,
2013-03-30 12:23:00,61.9,52.4,29.92,WNW,289,9.0,11.0,71,0.00,,,0.52,VWS V14.00,2013-03-30 17:23:00,
2013-03-30 12:28:00,61.5,51.6,29.92,West,269,6.0,13.0,70,0.00,,,0.52,VWS V14.00,2013-03-30 17:28:00,
2013-03-30 12:33:00,61.7,51.8,29.92,WNW,300,6.0,13.0,70,0.00,,,0.52,VWS V14.00,2013-03-30 17:33:00,
2013-03-30 12:38:00,61.7,51.4,29.92,NW,317,0.0,14.0,69,0.00,,,0.52,VWS V14.00,2013-03-30 17:38:00,
2013-03-30 12:43:00,62.7,52.0,29.92,NNW,331,9.0,14.0,68,0.00,,,0.52,VWS V14.00,2013-03-30 17:43:00,
2013-03-30 12:48:00,62.6,51.1,29.92,NNW,338,5.0,15.0,66,0.00,,,0.52,VWS V14.00,2013-03-30 17:48:00,
2013-03-30 12:53:00,62.8,51.3,29.92,NW,323,4.0,16.0,66,0.00,,,0.52,VWS V14.00,2013-03-30 17:53:00,
2013-03-30 12:58:00,63.3,51.8,29.91,WNW,298,4.0,16.0,66,0.00,,,0.52,VWS V14.00,2013-03-30 17:58:00,
2013-03-30 13:03:00,63.8,51.0,29.91,NW,305,10.0,16.0,63,0.00,,,0.52,VWS V14.00,2013-03-30 18:03:00,
2013-03-30 13:08:00,64.1,50.8,29.91,NNW,331,1.0,9.0,62,0.00,,,0.52,VWS V14.00,2013-03-30 18:08:00,
2013-03-30 13:13:00,64.4,51.1,29.91,WNW,296,4.0,12.0,62,0.00,,,0.52,VWS V14.00,2013-03-30 18:13:00,
2013-03-30 13:18:00,64.3,50.6,29.90,North,355,0.0,12.0,61,0.00,,,0.52,VWS V14.00,2013-03-30 18:18:00,
2013-03-30 13:23:00,64.5,49.4,29.90,North,360,0.0,13.0,58,0.00,,,0.52,VWS V14.00,2013-03-30 18:23:00,
2013-03-30 13:28:00,65.0,49.4,29.90,WNW,301,6.0,13.0,57,0.00,,,0.52,VWS V14.00,2013-03-30 18:28:00,
2013-03-30 13:33:00,65.5,48.9,29.90,WNW,286,9.0,16.0,55,0.00,,,0.52,VWS V14.00,2013-03-30 18:33:00,
2013-03-30 13:38:00,65.4,47.8,29.90,WNW,302,5.0,11.0,53,0.00,,,0.52,VWS V14.00,2013-03-30 18:38:00,
2013-03-30 13:43:00,65.4,47.8,29.90,NW,313,4.0,11.0,53,0.00,,,0.52,VWS V14.00,2013-03-30 18:43:00,
2013-03-30 13:48:00,65.7,49.1,29.90,WNW,287,8.0,13.0,55,0.00,,,0.52,VWS V14.00,2013-03-30 18:48:00,
2013-03-30 13:53:00,65.9,47.3,29.90,NNE,25,4.0,13.0,51,0.00,,,0.52,VWS V14.00,2013-03-30 18:53:00,
2013-03-30 13:58:00,66.2,47.6,29.90,NNW,346,0.0,13.0,51,0.00,,,0.52,VWS V14.00,2013-03-30 18:58:00,
2013-03-30 14:03:00,66.3,47.7,29.90,WNW,285,8.0,14.0,51,0.00,,,0.52,VWS V14.00,2013-03-30 19:03:00,
2013-03-30 14:08:00,66.1,46.9,29.90,West,271,4.0,13.0,50,0.00,,,0.52,VWS V14.00,2013-03-30 19:08:00,
2013-03-30 14:13:00,65.9,46.2,29.90,NNW,342,3.0,16.0,49,0.00,,,0.52,VWS V14.00,2013-03-30 19:13:00,
2013-03-30 14:18:00,65.9,44.0,29.90,North,355,9.0,18.0,45,0.00,,,0.52,VWS V14.00,2013-03-30 19:18:00,
2013-03-30 14:23:00,66.1,44.7,29.90,NW,323,3.0,18.0,46,0.00,,,0.52,VWS V14.00,2013-03-30 19:23:00,
2013-03-30 14:28:00,66.0,44.1,29.90,NNW,340,2.0,18.0,45,0.00,,,0.52,VWS V14.00,2013-03-30 19:28:00,
2013-03-30 14:33:00,66.1,45.9,29.90,North,5,9.0,18.0,48,0.00,,,0.52,VWS V14.00,2013-03-30 19:33:00,
2013-03-30 14:38:00,66.4,46.1,29.90,NNE,30,1.0,13.0,48,0.00,,,0.52,VWS V14.00,2013-03-30 19:38:00,
2013-03-30 14:43:00,66.7,45.8,29.90,NNE,24,4.0,13.0,47,0.00,,,0.52,VWS V14.00,2013-03-30 19:43:00,
2013-03-30 14:48:00,66.7,45.3,29.90,NNE,21,0.0,15.0,46,0.00,,,0.52,VWS V14.00,2013-03-30 19:48:00,
2013-03-30 14:53:00,66.8,44.8,29.90,NNW,345,2.0,15.0,45,0.00,,,0.52,VWS V14.00,2013-03-30 19:53:00,
2013-03-30 14:58:00,66.8,44.2,29.90,NNE,33,4.0,15.0,44,0.00,,,0.52,VWS V14.00,2013-03-30 19:58:00,
2013-03-30 15:03:00,66.6,43.4,29.90,NNW,331,0.0,15.0,43,0.00,,,0.52,VWS V14.00,2013-03-30 20:03:00,
2013-03-30 15:08:00,66.1,44.2,29.90,NNW,327,0.0,14.0,45,0.00,,,0.52,VWS V14.00,2013-03-30 20:08:00,
2013-03-30 15:13:00,65.9,44.0,29.90,NW,306,7.0,14.0,45,0.00,,,0.52,VWS V14.00,2013-03-30 20:13:00,
2013-03-30 15:18:00,65.2,42.8,29.90,WNW,295,4.0,15.0,44,0.00,,,0.52,VWS V14.00,2013-03-30 20:18:00,
2013-03-30 15:23:00,64.8,43.6,29.90,NNE,22,17.0,17.0,46,0.00,,,0.52,VWS V14.00,2013-03-30 20:23:00,
2013-03-30 15:28:00,64.3,43.1,29.90,NNE,24,4.0,17.0,46,0.00,,,0.52,VWS V14.00,2013-03-30 20:28:00,
2013-03-30 15:33:00,63.8,43.8,29.90,NNW,330,3.0,17.0,48,0.00,,,0.52,VWS V14.00,2013-03-30 20:33:00,
2013-03-30 15:38:00,63.7,43.1,29.90,West,276,0.0,13.0,47,0.00,,,0.52,VWS V14.00,2013-03-30 20:38:00,
2013-03-30 15:43:00,63.6,43.0,29.90,North,360,5.0,16.0,47,0.00,,,0.52,VWS V14.00,2013-03-30 20:43:00,
2013-03-30 15:48:00,64.0,42.3,29.90,NW,306,3.0,16.0,45,0.00,,,0.52,VWS V14.00,2013-03-30 20:48:00,
2013-03-30 15:53:00,64.0,42.3,29.90,NNW,337,4.0,16.0,45,0.00,,,0.52,VWS V14.00,2013-03-30 20:53:00,
2013-03-30 15:58:00,63.9,42.2,29.90,NW,325,0.0,16.0,45,0.00,,,0.52,VWS V14.00,2013-03-30 20:58:00,
2013-03-30 16:03:00,63.9,41.0,29.90,North,9,6.0,16.0,43,0.00,,,0.52,VWS V14.00,2013-03-30 21:03:00,
2013-03-30 16:08:00,64.2,43.0,29.90,NNE,19,3.0,13.0,46,0.00,,,0.52,VWS V14.00,2013-03-30 21:08:00,
2013-03-30 16:13:00,64.7,42.3,29.89,NNE,14,0.0,13.0,44,0.00,,,0.52,VWS V14.00,2013-03-30 21:13:00,
2013-03-30 16:18:00,65.6,42.5,29.89,NE,34,5.0,13.0,43,0.00,,,0.52,VWS V14.00,2013-03-30 21:18:00,
2013-03-30 16:23:00,65.9,44.0,29.89,NNW,334,0.0,13.0,45,0.00,,,0.52,VWS V14.00,2013-03-30 21:23:00,
2013-03-30 16:28:00,66.0,42.9,29.89,North,355,1.0,13.0,43,0.00,,,0.52,VWS V14.00,2013-03-30 21:28:00,
2013-03-30 16:33:00,65.8,42.1,29.89,North,9,6.0,15.0,42,0.00,,,0.52,VWS V14.00,2013-03-30 21:33:00,
2013-03-30 16:38:00,65.6,38.0,29.89,NNW,332,7.0,14.0,36,0.00,,,0.52,VWS V14.00,2013-03-30 21:38:00,
2013-03-30 16:43:00,65.5,38.6,29.89,NW,325,0.0,14.0,37,0.00,,,0.52,VWS V14.00,2013-03-30 21:43:00,
2013-03-30 16:48:00,65.6,40.7,29.89,NNE,32,0.0,14.0,40,0.00,,,0.52,VWS V14.00,2013-03-30 21:48:00,
2013-03-30 16:53:00,65.5,41.2,29.89,NE,49,0.0,14.0,41,0.00,,,0.52,VWS V14.00,2013-03-30 21:53:00,
2013-03-30 16:58:00,65.1,40.2,29.89,North,360,9.0,15.0,40,0.00,,,0.52,VWS V14.00,2013-03-30 21:58:00,
2013-03-30 17:03:00,64.7,39.8,29.89,WNW,290,6.0,15.0,40,0.00,,,0.52,VWS V14.00,2013-03-30 22:03:00,
2013-03-30 17:08:00,64.8,39.9,29.89,NW,309,2.0,9.0,40,0.00,,,0.52,VWS V14.00,2013-03-30 22:08:00,
2013-03-30 17:13:00,65.0,40.8,29.89,NW,313,6.0,11.0,41,0.00,,,0.52,VWS V14.00,2013-03-30 22:13:00,
2013-03-30 17:18:00,65.0,40.1,29.89,NNW,342,7.0,11.0,40,0.00,,,0.52,VWS V14.00,2013-03-30 22:18:00,
2013-03-30 17:23:00,64.9,40.0,29.89,NNE,14,1.0,12.0,40,0.00,,,0.52,VWS V14.00,2013-03-30 22:23:00,
2013-03-30 17:28:00,64.8,40.6,29.89,North,355,5.0,14.0,41,0.00,,,0.52,VWS V14.00,2013-03-30 22:28:00,
2013-03-30 17:33:00,64.7,39.8,29.89,NNE,28,5.0,18.0,40,0.00,,,0.52,VWS V14.00,2013-03-30 22:33:00,
2013-03-30 17:38:00,64.5,39.7,29.90,WNW,296,1.0,12.0,40,0.00,,,0.52,VWS V14.00,2013-03-30 22:38:00,
2013-03-30 17:43:00,64.5,40.3,29.90,NNW,338,5.0,12.0,41,0.00,,,0.52,VWS V14.00,2013-03-30 22:43:00,
2013-03-30 17:48:00,64.3,40.1,29.90,NW,319,2.0,12.0,41,0.00,,,0.52,VWS V14.00,2013-03-30 22:48:00,
2013-03-30 17:53:00,63.9,39.8,29.90,NNW,342,2.0,12.0,41,0.00,,,0.52,VWS V14.00,2013-03-30 22:53:00,
2013-03-30 17:58:00,63.8,39.7,29.90,North,355,0.0,12.0,41,0.00,,,0.52,VWS V14.00,2013-03-30 22:58:00,
2013-03-30 18:03:00,63.8,39.7,29.90,North,355,0.0,12.0,41,0.00,,,0.52,VWS V14.00,2013-03-30 23:03:00,
2013-03-30 18:07:00,63.7,39.6,29.90,NNE,13,0.0,9.0,41,0.00,,,0.52,VWS V14.00,2013-03-30 23:07:00,
2013-03-30 18:12:00,63.5,39.4,29.90,NNE,32,4.0,10.0,41,0.00,,,0.52,VWS V14.00,2013-03-30 23:12:00,
2013-03-30 18:17:00,63.2,39.8,29.90,NW,304,0.0,10.0,42,0.00,,,0.52,VWS V14.00,2013-03-30 23:17:00,
2013-03-30 18:23:00,62.9,39.5,29.90,North,355,0.0,10.0,42,0.00,,,0.52,VWS V14.00,2013-03-30 23:23:00,
2013-03-30 18:28:00,62.6,39.2,29.90,NNE,19,0.0,10.0,42,0.00,,,0.52,VWS V14.00,2013-03-30 23:28:00,
2013-03-30 18:32:00,62.5,39.1,29.90,NNE,15,0.0,10.0,42,0.00,,,0.52,VWS V14.00,2013-03-30 23:32:00,
2013-03-30 18:37:00,62.5,39.7,29.90,North,355,0.0,7.0,43,0.00,,,0.52,VWS V14.00,2013-03-30 23:37:00,
2013-03-30 18:42:00,62.5,40.3,29.90,North,360,0.0,7.0,44,0.00,,,0.52,VWS V14.00,2013-03-30 23:42:00,
2013-03-30 18:47:00,62.5,40.3,29.90,NNW,348,2.0,7.0,44,0.00,,,0.52,VWS V14.00,2013-03-30 23:47:00,
2013-03-30 18:52:00,62.4,40.2,29.90,NNW,340,0.0,7.0,44,0.00,,,0.52,VWS V14.00,2013-03-30 23:52:00,
2013-03-30 18:57:00,62.2,40.0,29.90,North,360,0.0,7.0,44,0.00,,,0.52,VWS V14.00,2013-03-30 23:57:00,
2013-03-30 19:02:00,62.0,39.9,29.90,North,355,0.0,7.0,44,0.00,,,0.52,VWS V14.00,2013-03-31 00:02:00,
2013-03-30 19:07:00,61.8,39.7,29.89,North,355,0.0,0.0,44,0.00,,,0.52,VWS V14.00,2013-03-31 00:07:00,
2013-03-30 19:12:00,61.7,40.2,29.90,North,355,0.0,0.0,45,0.00,,,0.52,VWS V14.00,2013-03-31 00:12:00,
2013-03-30 19:17:00,61.6,40.1,29.90,North,355,0.0,1.0,45,0.00,,,0.52,VWS V14.00,2013-03-31 00:17:00,
2013-03-30 19:22:00,61.4,40.5,29.90,North,355,0.0,1.0,46,0.00,,,0.52,VWS V14.00,2013-03-31 00:22:00,
2013-03-30 19:27:00,61.3,40.4,29.90,North,355,0.0,1.0,46,0.00,,,0.52,VWS V14.00,2013-03-31 00:27:00,
2013-03-30 19:32:00,61.1,40.2,29.90,North,355,0.0,1.0,46,0.00,,,0.52,VWS V14.00,2013-03-31 00:32:00,
2013-03-30 19:37:00,60.9,40.5,29.90,North,355,0.0,1.0,47,0.00,,,0.52,VWS V14.00,2013-03-31 00:37:00,
2013-03-30 19:42:00,60.7,40.4,29.90,North,355,0.0,1.0,47,0.00,,,0.52,VWS V14.00,2013-03-31 00:42:00,
2013-03-30 19:47:00,60.5,40.2,29.90,North,355,0.0,1.0,47,0.00,,,0.52,VWS V14.00,2013-03-31 00:47:00,
2013-03-30 19:52:00,60.4,40.6,29.90,North,355,0.0,1.0,48,0.00,,,0.52,VWS V14.00,2013-03-31 00:52:00,
2013-03-30 19:57:00,60.3,41.1,29.90,North,355,0.0,1.0,49,0.00,,,0.52,VWS V14.00,2013-03-31 00:57:00,
2013-03-30 20:02:00,60.1,40.9,29.91,North,355,0.0,1.0,49,0.00,,,0.52,VWS V14.00,2013-03-31 01:02:00,
2013-03-30 20:07:00,59.9,40.7,29.91,North,355,0.0,0.0,49,0.00,,,0.52,VWS V14.00,2013-03-31 01:07:00,
2013-03-30 20:12:00,59.6,40.4,29.91,North,355,0.0,0.0,49,0.00,,,0.52,VWS V14.00,2013-03-31 01:12:00,
2013-03-30 20:17:00,59.4,40.8,29.91,North,355,0.0,0.0,50,0.00,,,0.52,VWS V14.00,2013-03-31 01:17:00,
2013-03-30 20:22:00,59.1,40.5,29.91,North,355,0.0,1.0,50,0.00,,,0.52,VWS V14.00,2013-03-31 01:22:00,
2013-03-30 20:27:00,59.0,40.4,29.91,North,355,0.0,1.0,50,0.00,,,0.52,VWS V14.00,2013-03-31 01:27:00,
2013-03-30 20:32:00,59.0,40.9,29.91,North,355,0.0,1.0,51,0.00,,,0.52,VWS V14.00,2013-03-31 01:32:00,
2013-03-30 20:37:00,58.8,40.7,29.91,North,355,0.0,0.0,51,0.00,,,0.52,VWS V14.00,2013-03-31 01:37:00,
2013-03-30 20:42:00,58.5,40.5,29.92,North,355,0.0,0.0,51,0.00,,,0.52,VWS V14.00,2013-03-31 01:42:00,
2013-03-30 20:47:00,58.3,40.8,29.92,North,355,0.0,0.0,52,0.00,,,0.52,VWS V14.00,2013-03-31 01:47:00,
2013-03-30 20:52:00,58.1,40.6,29.92,North,355,0.0,0.0,52,0.00,,,0.52,VWS V14.00,2013-03-31 01:52:00,
2013-03-30 20:57:00,58.0,41.0,29.92,North,355,0.0,0.0,53,0.00,,,0.52,VWS V14.00,2013-03-31 01:57:00,
2013-03-30 21:02:00,57.8,40.8,29.92,North,355,0.0,0.0,53,0.00,,,0.52,VWS V14.00,2013-03-31 02:02:00,
2013-03-30 21:07:00,57.7,40.7,29.92,North,355,0.0,0.0,53,0.00,,,0.52,VWS V14.00,2013-03-31 02:07:00,
2013-03-30 21:12:00,57.5,40.5,29.92,North,355,0.0,0.0,53,0.00,,,0.52,VWS V14.00,2013-03-31 02:12:00,
2013-03-30 21:17:00,57.4,40.4,29.92,North,355,0.0,0.0,53,0.00,,,0.52,VWS V14.00,2013-03-31 02:17:00,
2013-03-30 21:22:00,57.2,40.2,29.92,North,355,0.0,1.0,53,0.00,,,0.52,VWS V14.00,2013-03-31 02:22:00,
2013-03-30 21:27:00,57.1,40.6,29.93,North,355,0.0,1.0,54,0.00,,,0.52,VWS V14.00,2013-03-31 02:27:00,
2013-03-30 21:32:00,56.9,40.4,29.93,North,355,0.0,1.0,54,0.00,,,0.52,VWS V14.00,2013-03-31 02:32:00,
2013-03-30 21:37:00,56.8,40.3,29.93,North,355,0.0,0.0,54,0.00,,,0.52,VWS V14.00,2013-03-31 02:37:00,
2013-03-30 21:42:00,56.6,40.2,29.93,North,355,0.0,0.0,54,0.00,,,0.52,VWS V14.00,2013-03-31 02:42:00,
2013-03-30 21:47:00,56.4,40.5,29.93,NW,304,0.0,5.0,55,0.00,,,0.52,VWS V14.00,2013-03-31 02:47:00,
2013-03-30 21:52:00,56.3,40.8,29.94,WNW,292,2.0,5.0,56,0.00,,,0.52,VWS V14.00,2013-03-31 02:52:00,
2013-03-30 21:57:00,56.0,41.5,29.94,West,261,4.0,7.0,58,0.00,,,0.52,VWS V14.00,2013-03-31 02:57:00,
2013-03-30 22:02:00,55.4,41.3,29.94,West,263,3.0,11.0,59,0.00,,,0.52,VWS V14.00,2013-03-31 03:02:00,
2013-03-30 22:07:00,54.9,41.3,29.94,WNW,292,0.0,5.0,60,0.00,,,0.52,VWS V14.00,2013-03-31 03:07:00,
2013-03-30 22:12:00,54.6,41.0,29.95,WNW,290,0.0,5.0,60,0.00,,,0.52,VWS V14.00,2013-03-31 03:12:00,
2013-03-30 22:17:00,54.4,40.8,29.95,WNW,286,6.0,7.0,60,0.00,,,0.52,VWS V14.00,2013-03-31 03:17:00,
2013-03-30 22:22:00,54.3,41.2,29.95,WNW,287,3.0,9.0,61,0.00,,,0.52,VWS V14.00,2013-03-31 03:22:00,
2013-03-30 22:27:00,54.2,42.3,29.95,NW,307,3.0,10.0,64,0.00,,,0.52,VWS V14.00,2013-03-31 03:27:00,
2013-03-30 22:32:00,54.4,43.7,29.95,WNW,293,4.0,10.0,67,0.00,,,0.52,VWS V14.00,2013-03-31 03:32:00,
2013-03-30 22:37:00,54.6,42.3,29.95,WNW,302,4.0,6.0,63,0.00,,,0.52,VWS V14.00,2013-03-31 03:37:00,
2013-03-30 22:42:00,54.4,41.7,29.95,NW,317,0.0,6.0,62,0.00,,,0.52,VWS V14.00,2013-03-31 03:42:00,
2013-03-30 22:47:00,54.1,41.8,29.95,NW,313,2.0,6.0,63,0.00,,,0.52,VWS V14.00,2013-03-31 03:47:00,
2013-03-30 22:52:00,53.8,41.5,29.95,West,281,0.0,6.0,63,0.00,,,0.52,VWS V14.00,2013-03-31 03:52:00,
2013-03-30 22:57:00,53.6,41.3,29.95,WNW,303,0.0,7.0,63,0.00,,,0.52,VWS V14.00,2013-03-31 03:57:00,
2013-03-30 23:00:00,53.5,41.6,29.95,WNW,303,0.0,7.0,64,0.00,,,0.52,VWS V14.00,2013-03-31 04:00:00,
2013-03-30 23:05:00,53.4,41.5,29.95,WNW,300,0.0,0.0,64,0.00,,,0.52,VWS V14.00,2013-03-31 04:05:00,
2013-03-30 23:10:00,53.3,41.5,29.95,WNW,299,0.0,6.0,64,0.00,,,0.52,VWS V14.00,2013-03-31 04:10:00,
2013-03-30 23:15:00,53.2,41.8,29.95,WNW,300,0.0,6.0,65,0.00,,,0.52,VWS V14.00,2013-03-31 04:15:00,
2013-03-30 23:20:00,53.1,41.7,29.95,WNW,284,2.0,6.0,65,0.00,,,0.52,VWS V14.00,2013-03-31 04:20:00,
2013-03-30 23:25:00,53.0,42.0,29.95,WNW,284,0.0,6.0,66,0.00,,,0.52,VWS V14.00,2013-03-31 04:25:00,
2013-03-30 23:30:00,53.2,43.7,29.96,WNW,296,4.0,6.0,70,0.00,,,0.52,VWS V14.00,2013-03-31 04:30:00,
2013-03-30 23:35:00,53.1,42.5,29.96,WNW,303,4.0,5.0,67,0.00,,,0.52,VWS V14.00,2013-03-31 04:35:00,
2013-03-30 23:40:00,52.9,42.6,29.96,NW,309,1.0,8.0,68,0.00,,,0.52,VWS V14.00,2013-03-31 04:40:00,
2013-03-30 23:45:00,52.6,42.7,29.97,WNW,303,2.0,8.0,69,0.00,,,0.52,VWS V14.00,2013-03-31 04:45:00,
2013-03-30 23:50:00,52.3,42.8,29.97,WNW,284,2.0,8.0,70,0.00,,,0.52,VWS V14.00,2013-03-31 04:50:00,
2013-03-30 23:55:00,52.0,42.9,29.97,WNW,300,5.0,11.0,71,0.00,,,0.52,VWS V14.00,2013-03-31 04:55:00,